Date String (YYYY-MM-DD hh:mm:ss) UTC,Instrument flags,Ambient pressure (hPa),Sample flow (lpm),Bypass flow (lpm),Sample temperature (°C),Ambient temperature (°C),ASC tube jacket temperature (°C),LED temperature (°C),Box temperature (°C),Sample RH (%),Span deviation,Mass concentration (μg/m³),Mass concentration (μg/m³),Mass concentration (μg/m³)
DateTimeUTC,F1_M11,P_M11,Q1_M11,Q2_M11,T1_M11,T2_M11,T3_M11,T4_M11,T5_M11,U1_M11,ZSPAN_M11,X2_M11,X0_M11,X1_M11
2022-06-02 08:00:00,,0829.1,4.98,0.00,25.9,24.8,00.0,34.8,27.8,24.3,0000.0,0006.60,0010.08,0006.36
2022-06-02 08:01:00,,0829.1,5.00,0.00,25.9,24.8,00.0,34.8,27.9,24.3,0000.0,0006.64,0010.13,0006.40
2022-06-02 08:02:00,,0829.1,5.01,0.00,25.9,24.8,00.0,34.8,27.9,24.3,0000.0,0006.67,0009.81,0006.43
2022-06-02 08:03:00,,0829.1,4.99,0.00,25.9,24.8,00.0,34.8,27.9,24.3,0000.0,0006.66,0009.93,0006.43
2022-06-02 08:04:00,,0829.1,5.01,0.00,25.9,24.8,00.0,34.8,27.9,24.3,0000.0,0006.64,0009.90,0006.43
2022-06-02 08:05:00,,0829.1,5.00,0.00,25.9,24.8,00.0,34.8,27.9,24.3,0000.0,0006.66,0009.98,0006.44
2022-06-02 08:06:00,,0829.1,5.00,0.00,25.9,24.8,00.0,34.8,27.9,24.3,0000.0,0006.69,0010.10,0006.45
2022-06-02 08:07:00,,0829.1,5.00,0.00,25.9,24.8,00.0,34.8,27.9,24.3,0000.0,0006.69,0010.10,0006.44
2022-06-02 08:08:00,,0829.1,5.00,0.00,25.9,24.8,00.0,34.8,27.9,24.3,0000.0,0006.71,0010.16,0006.44
2022-06-02 08:09:00,,0829.1,4.99,0.00,25.9,24.8,00.0,34.8,27.9,24.3,0000.0,0006.72,0010.15,0006.44
2022-06-02 08:10:00,,0829.1,5.01,0.00,25.9,24.8,00.0,34.8,27.9,24.3,0000.0,0006.72,0009.99,0006.43
2022-06-02 08:11:00,,0829.1,5.00,0.00,25.9,24.8,00.0,34.8,27.9,24.3,0000.0,0006.70,0009.38,0006.40
2022-06-02 08:12:00,,0829.1,4.99,0.00,25.9,24.8,00.0,34.8,27.9,24.3,0000.0,0006.67,0009.38,0006.37
2022-06-02 08:13:00,,0829.1,5.01,0.00,25.9,24.8,00.0,34.8,27.9,24.3,0000.0,0006.67,0009.35,0006.37
2022-06-02 08:14:00,,0829.1,5.00,0.00,25.9,24.8,00.0,34.8,27.9,24.3,0000.0,0006.67,0009.33,0006.37
2022-06-02 08:15:00,,0829.1,4.99,0.00,25.9,24.8,00.0,34.8,27.9,24.3,0000.0,0006.72,0009.39,0006.40
2022-06-02 08:16:00,,0829.1,5.00,0.00,25.9,24.8,00.0,34.8,27.9,25.0,0000.0,0006.72,0009.35,0006.42
2022-06-02 08:17:00,,0829.0,5.00,0.00,25.9,24.8,00.0,34.8,27.9,25.5,0000.0,0006.69,0009.51,0006.42
2022-06-02 08:18:00,,0829.0,4.99,0.00,25.9,24.8,00.0,34.8,27.9,24.7,0000.0,0006.70,0009.57,0006.44
2022-06-02 08:19:00,,0829.0,4.98,0.00,25.9,24.8,00.0,34.8,27.9,24.5,0000.0,0006.71,0009.53,0006.46
2022-06-02 08:20:00,,0829.0,5.00,0.00,25.9,24.8,00.0,34.8,27.9,24.4,-000.1,0006.74,0009.60,0006.46
2022-06-02 08:21:00,,0829.0,5.00,0.00,25.9,24.8,00.0,34.8,27.9,24.4,-001.1,0006.74,0009.61,0006.47
2022-06-02 08:22:00,,0829.0,4.99,0.00,25.9,24.8,00.0,34.8,27.9,24.3,-001.3,0006.72,0009.59,0006.47
2022-06-02 08:23:00,,0829.0,5.00,0.00,25.9,24.8,00.0,34.8,27.9,24.2,-000.7,0006.67,0009.47,0006.44
2022-06-02 08:24:00,,0829.0,5.00,0.00,25.9,24.8,00.0,34.8,27.9,24.2,-000.8,0006.65,0009.47,0006.42
2022-06-02 08:25:00,,0828.9,5.00,0.00,25.9,24.8,00.0,34.8,27.9,24.1,-000.2,0006.60,0009.29,0006.38
2022-06-02 08:26:00,,0829.0,5.00,0.00,25.9,24.8,00.0,34.8,27.9,23.9,0000.0,0006.49,0009.58,0006.30
2022-06-02 08:27:00,,0828.9,5.00,0.00,25.9,24.8,00.0,34.8,27.9,23.8,0000.0,0006.39,0009.58,0006.18
2022-06-02 08:28:00,,0828.9,4.99,0.00,25.9,24.8,00.0,34.8,27.9,23.7,0000.0,0006.30,0009.27,0006.09
2022-06-02 08:29:00,,0828.9,5.00,0.00,25.9,24.8,00.0,34.9,27.9,23.8,0000.0,0006.21,0009.20,0005.99
2022-06-02 08:30:00,,0828.9,4.99,0.00,25.9,24.8,00.0,34.8,27.9,23.8,0000.0,0006.14,0009.52,0005.91
2022-06-02 08:31:00,,0829.0,5.01,0.00,25.9,24.8,00.0,34.8,27.9,23.7,0000.0,0006.01,0009.51,0005.81
2022-06-02 08:32:00,,0829.0,4.99,0.00,25.9,24.8,00.0,34.8,27.9,23.4,0000.0,0005.89,0009.38,0005.70
2022-06-02 08:33:00,,0829.0,5.01,0.00,25.9,24.8,00.0,34.8,27.9,23.1,0000.0,0005.71,0009.15,0005.53
2022-06-02 08:34:00,,0828.9,5.00,0.00,25.9,24.8,00.0,34.8,27.9,22.9,0000.0,0005.56,0009.03,0005.37
2022-06-02 08:35:00,,0828.9,5.01,0.00,25.9,24.8,00.0,34.8,27.9,23.1,0000.0,0005.43,0008.91,0005.23
2022-06-02 08:36:00,,0829.0,5.01,0.00,25.9,24.8,00.0,34.8,27.9,23.2,0000.0,0005.32,0008.82,0005.12
2022-06-02 08:37:00,,0829.0,4.99,0.00,25.9,24.8,00.0,34.8,27.9,23.0,0000.0,0005.21,0008.37,0005.00
2022-06-02 08:38:00,,0829.0,5.01,0.00,25.9,24.8,00.0,34.8,27.9,22.8,0000.0,0005.11,0008.07,0004.90
2022-06-02 08:39:00,,0828.9,5.00,0.00,25.9,24.8,00.0,34.8,27.9,22.8,0000.0,0005.03,0008.06,0004.80
2022-06-02 08:40:00,,0828.9,4.98,0.00,25.9,24.8,00.0,34.8,27.9,23.2,0000.0,0004.99,0007.93,0004.76
2022-06-02 08:41:00,,0828.9,5.02,0.00,25.9,24.8,00.0,34.8,27.9,23.3,0000.0,0004.95,0007.60,0004.73
2022-06-02 08:42:00,,0828.9,5.00,0.00,25.9,24.8,00.0,34.8,27.8,23.2,0000.0,0004.92,0007.22,0004.69
2022-06-02 08:43:00,,0828.9,5.01,0.00,25.9,24.8,00.0,34.8,27.9,23.1,0000.0,0004.89,0007.15,0004.66
2022-06-02 08:44:00,,0828.9,5.01,0.00,25.9,24.8,00.0,34.8,27.9,22.6,0000.0,0004.88,0007.16,0004.64
2022-06-02 08:45:00,,0828.9,5.01,0.00,25.9,24.8,00.0,34.8,27.9,22.4,0000.0,0004.86,0007.18,0004.61
2022-06-02 08:46:00,,0828.8,4.99,0.00,25.9,24.8,00.0,34.8,27.8,22.1,0000.0,0004.78,0007.20,0004.53
2022-06-02 08:47:00,,0828.8,5.00,0.00,25.9,24.8,00.0,34.8,27.8,22.0,0000.0,0004.68,0007.10,0004.42
2022-06-02 08:48:00,,0828.8,4.99,0.00,25.9,24.8,00.0,34.8,27.9,22.0,0000.0,0004.66,0007.27,0004.35
2022-06-02 08:49:00,,0828.9,5.01,0.00,25.9,24.8,00.0,34.8,27.8,22.1,0000.0,0004.61,0007.68,0004.30
2022-06-02 08:50:00,,0828.8,4.99,0.00,25.9,24.8,00.0,34.8,27.8,21.9,0000.0,0004.52,0007.66,0004.24
2022-06-02 08:51:00,,0828.8,5.02,0.00,25.9,24.8,00.0,34.8,27.8,21.8,0000.0,0004.41,0007.54,0004.12
2022-06-02 08:52:00,,0828.8,4.98,0.00,25.9,24.8,00.0,34.8,27.8,21.8,0000.0,0004.26,0007.43,0003.97
2022-06-02 08:53:00,,0828.7,5.00,0.00,25.9,24.8,00.0,34.8,27.8,21.8,0000.0,0004.13,0007.28,0003.83
2022-06-02 08:54:00,,0828.9,5.00,0.00,25.9,24.8,00.0,34.8,27.8,21.8,0000.0,0003.99,0007.04,0003.70
2022-06-02 08:55:00,,0828.8,4.99,0.00,25.9,24.7,00.0,34.8,27.8,21.8,0000.0,0003.90,0006.88,0003.61
2022-06-02 08:56:00,,0828.8,5.00,0.00,25.9,24.7,00.0,34.8,27.8,21.7,0000.0,0003.87,0006.95,0003.56
2022-06-02 08:57:00,,0828.8,5.01,0.00,25.9,24.7,00.0,34.8,27.8,21.6,0000.0,0003.82,0006.75,0003.52
2022-06-02 08:58:00,,0828.8,4.99,0.00,25.9,24.7,00.0,34.8,27.8,21.6,0000.0,0003.79,0006.66,0003.49
2022-06-02 08:59:00,,0828.8,5.01,0.00,25.9,24.7,00.0,34.8,27.8,21.7,0000.0,0003.72,0006.36,0003.45
